Location: Unspecified
(0.0000°N, 0.0000°E)
Time: 03:35:24
(UTC+00:00)

deb Delta 104 - Pass Details

Date: 13 March 2026
Orbit: 1430 x 1579 km, 102.3° (Epoch: 17 April)

Event Time Altitude Azimuth Distance (km) Brightness Sun altitude
Rises 05:26:50 0° 7° (N) 4,753 ? -10.7°
Reaches altitude 10° 05:29:45 10° 3° (N) 3,771 ? -9.9°
Maximum altitude 05:38:25 57° 287° (WNW) 1,796 ? -7.8°
Drops below altitude 10° 05:47:00 10° 210° (SSW) 3,728 ? -5.6°
Sets 05:49:54 0° 206° (SSW) 4,695 ? -4.9°
